User: anonymous   Login
Location: Unspecified
(0.0000°N, 0.0000°E)
Time: 08:13:43
(UTC+00:00)
Language:

STSS DEMO 2 (USA 209) - Orbit

View from above orbital plane
View from above orbital plane
View from above satellite
View from above satellite

Ground track
Ground track

The orbit data is extracted from the following two-line orbital elements,

1 35938U 09052B   15101.82226436 0.00000000  00000-0  00000-0 0    08
2 35938  57.9886  19.5776 0018652 199.6815 160.3184 12.79142085    01
Epoch (UTC): 11 April 2015 19:44:03
Eccentricity: 0.0018652
inclination: 57.9886°
perigee height: 1330 km
apogee height: 1359 km
right ascension of ascending node: 19.5776°
argument of perigee: 199.6815°
revolutions per day: 12.79142085
mean anomaly at epoch: 160.3184°
orbit number at epoch: 0

The dashed part of the orbit path shows where the satellite is in the earth's shadow,  

DLR